Regional Weather Roundup
Issued by NWS

Home | Current Version | Previous Version | Graphics & Text | Print | Product List | Glossary On
Versions: 1 2 3 4 5 6 7 8 9 10 11 12 13 14 15 16 17 18 19 20 21 22 23 24 25 26 27 28 29 30 31 32 33 34 35 36 37 38 39 40 41 42 43 44 45 46 47 48 49 50
914
ASUS43 KBIS 051502
RWRND

NORTH DAKOTA REGIONAL WEATHER ROUNDUP
NATIONAL WEATHER SERVICE BISMARCK ND
900 AM CST MON DEC 05 2016

NOTE: "FAIR" INDICATES FEW OR NO CLOUDS BELOW 12,000 FEET WITH NO
SIGNIFICANT WEATHER AND/OR OBSTRUCTIONS TO VISIBILITY.


NDZ001>003-009>011-017-051600-
NORTHWEST NORTH DAKOTA

CITY           SKY/WX    TMP DP  RH WIND       PRES   REMARKS
WILLISTON      CLOUDY    24  19  81 NW18      29.59R WCI  10
MINOT          MOCLDY    21  18  88 SE3       29.52R
$$

NDZ018>021-031>035-040>046-051600-
SOUTHWEST NORTH DAKOTA

CITY           SKY/WX    TMP DP  RH WIND       PRES   REMARKS
BISMARCK       CLOUDY    24  22  91 SW5       29.56S WCI  18
DICKINSON      CLOUDY    26  21  81 W28       29.55R WCI  10
GARRISON         N/A     32  29  88 NW9       29.52R
HETTINGER ARPT MIX PCPN  27  22  81 NW29G36   29.59R WCI  11
$$

NDZ004>008-012>016-024-026-027-054-051600-
NORTHEAST NORTH DAKOTA

CITY           SKY/WX    TMP DP  RH WIND       PRES   REMARKS
GRAND FORKS    FOG       27  25  92 SE10      29.69S VSB 1   WCI  17
DEVILS LAKE    CLOUDY    23  22  96 E15       29.62R FOG     WCI  10
$$

NDZ022-023-025-028>030-036>039-047>053-051600-
SOUTHEAST NORTH DAKOTA

CITY           SKY/WX    TMP DP  RH WIND       PRES   REMARKS
FARGO          FAIR      23  20  88 E5        29.65S WCI  17
JAMESTOWN      FAIR      23  21  92 E8        29.58R WCI  14
$$





USA.gov is the U.S. government's official web portal to all federal, state and local government web resources and services.